Weather observations for the past three days for
Oklahoma City, Will Rogers World Airport
Metric (Imperial)
Date Time (cdt) Wind (kph) Vis. (km) Weather Sky Cond. Temperature (ºC) Relative Humidity Wind Chill (°C) Heat Index (°C) Pressure Precipitation (cm)
Air Dwpt 6 hour altimeter (cm) sea level (mb) 1 hr 3 hr 6 hr
Max. Min.
21 12:52 S 19 16.09 Mostly Cloudy SCT034 BKN044 30 21.1 30.6 23.3 59% 33 76.66 1020.2
21 11:52 S 17 16.09 Mostly Cloudy FEW030 BKN150 BKN250 29.4 21.7 63% 32 76.71 1020.9
21 10:52 S 17 16.09 Mostly Cloudy FEW028 BKN150 BKN250 27.8 21.7 69% 30 76.73 1021.2
21 09:52 S 20 16.09 Mostly Cloudy FEW020 BKN150 BKN250 27.2 21.1 69% 29 76.73 1021.3
21 08:52 S 17 16.09 Mostly Cloudy FEW020 BKN150 BKN250 25.6 21.1 76% 27 76.71 1021.2
21 07:52 SE 17 16.09 Mostly Cloudy BKN250 23.9 21.1 84% 24 76.71 1021.1
21 06:52 S 13 16.09 Mostly Cloudy FEW055 BKN210 23.3 21.1 23.9 22.2 88% 76.68 1020.7
21 05:52 SE 13 16.09 Mostly Cloudy BKN230 22.8 21.1 90% 76.66 1020.4
21 04:52 S 15 16.09 Mostly Cloudy BKN250 23.3 21.1 88% 76.63 1020.2
21 03:52 S 13 16.09 Partly Cloudy SCT250 23.3 21.7 91% 76.63 1020.1
21 02:52 SE 15 16.09 Partly Cloudy SCT250 23.3 21.7 91% 76.63 1020.1
21 01:52 SE 9 16.09 Mostly Cloudy BKN250 22.2 21.1 94% 76.66 1020.6
21 00:52 S 7 16.09 Mostly Cloudy BKN250 23.9 21.1 28.9 23.9 84% 24 76.68 1020.6
20 23:52 SE 13 16.09 Mostly Cloudy SCT180 BKN250 25 21.1 79% 26 76.63 1020.2
20 22:52 SE 13 16.09 Mostly Cloudy FEW180 BKN220 BKN250 26.1 21.1 74% 28 76.63 1020.0
20 21:52 SE 17 16.09 Mostly Cloudy BKN220 BKN250 26.7 21.1 71% 28 76.58 1019.5
20 20:52 SE 19 16.09 Mostly Cloudy BKN200 BKN230 27.8 20.6 65% 30 76.58 1019.2
20 19:52 SE 13 16.09 Mostly Cloudy FEW055 BKN190 BKN250 28.3 21.1 65% 31 76.56 1019.0
20 18:52 SE 17 16.09 Mostly Cloudy FEW055 SCT085 BKN180 BKN250 28.9 20.6 30.6 28.3 61% 31 76.56 1019.2
20 17:52 SE 15 16.09 Mostly Cloudy FEW043 SCT060 BKN180 BKN250 30 20.6 57% 32 76.61 1019.6
20 16:52 SE 11 16.09 Mostly Cloudy SCT043 BKN180 BKN250 30 20 55% 32 76.66 1020.3
20 15:52 Vrbl 9 16.09 Mostly Cloudy SCT046 SCT075 BKN220 BKN250 30 20 55% 32 76.71 1021.0
20 14:52 SE 11 G 31 16.09 Mostly Cloudy BKN044 BKN060 BKN070 BKN250 30 20 55% 32 76.73 1021.6
20 13:52 Calm 16.09 Mostly Cloudy BKN037 BKN055 BKN250 28.9 20 59% 31 76.81 1022.4
20 12:52 Vrbl 9 16.09 Mostly Cloudy FEW024 SCT039 BKN065 BKN150 BKN250 28.3 21.1 28.9 22.8 65% 31 76.84 1022.9
20 11:52 S 7 16.09 Mostly Cloudy SCT022 SCT029 BKN036 BKN150 BKN250 27.2 21.7 72% 29 76.86 1023.2
20 10:52 SE 13 16.09 Mostly Cloudy SCT020 BKN150 BKN250 26.7 21.7 74% 29 76.86 1023.2
20 09:52 SE 15 16.09 Mostly Cloudy BKN017 BKN150 BKN250 26.1 21.7 77% 28 76.84 1022.9
20 08:52 SE 17 16.09 Mostly Cloudy SCT150 BKN250 25 21.1 79% 26 76.81 1022.4
20 07:52 SE 19 16.09 Mostly Cloudy SCT150 BKN250 24.4 20.6 79% 25 76.76 1021.7
20 06:52 SE 15 16.09 Mostly Cloudy FEW110 BKN250 22.8 20 22.8 21.1 84% 76.73 1021.2
20 05:52 SE 9 16.09 Mostly Cloudy SCT110 BKN250 21.7 19.4 87% 76.68 1020.9
20 04:52 SE 9 16.09 Mostly Cloudy BKN110 BKN250 21.7 19.4 87% 76.66 1020.2
20 03:52 E 7 16.09 Partly Cloudy SCT110 21.7 18.9 84% 76.61 1019.8
20 02:52 SE 6 16.09 Mostly Cloudy FEW095 BKN250 21.7 18.3 81% 76.63 1019.9
20 01:52 Calm 16.09 Partly Cloudy SCT250 21.1 18.3 84% 76.66 1020.6
20 00:52 S 7 16.09 Partly Cloudy SCT250 22.2 18.9 28.9 21.7 82% 76.66 1020.5
19 23:52 SE 13 16.09 A Few Clouds FEW250 22.2 18.9 82% 76.66 1020.5
19 22:52 SE 13 16.09 Partly Cloudy SCT250 22.2 18.9 82% 76.63 1020.3
19 21:52 SE 13 16.09 Partly Cloudy FEW045 FEW085 SCT250 23.9 18.9 74% 25 76.58 1019.6
19 20:52 SE 17 16.09 Mostly Cloudy FEW045 SCT065 SCT085 BKN250 26.7 18.3 60% 28 76.53 1018.8
19 19:52 SE 15 16.09 Mostly Cloudy FEW050 BKN085 BKN250 27.8 19.4 60% 29 76.48 1018.1
19 18:52 SE 20 16.09 Mostly Cloudy FEW050 BKN080 28.9 18.9 31.7 28.3 55% 30 76.45 1017.6
19 17:52 SE 13 16.09 Partly Cloudy SCT050 SCT060 30.6 19.4 51% 32 76.45 1017.5
19 16:52 SE 15 16.09 Mostly Cloudy SCT049 SCT060 BKN075 30.6 19.4 51% 32 76.45 1017.7
19 15:52 E 20 G 31 16.09 Mostly Cloudy BKN050 BKN060 30 19.4 53% 32 76.48 1018.0
19 14:52 E 7 16.09 Mostly Cloudy BKN049 BKN060 30.6 18.9 50% 32 76.5 1018.2
19 13:52 S 7 16.09 Mostly Cloudy BKN041 BKN050 29.4 18.9 53% 31 76.53 1018.7
19 12:52 SE 7 16.09 Mostly Cloudy SCT040 SCT048 BKN060 BKN250 29.4 19.4 29.4 23.3 55% 31 76.58 1019.2
19 11:52 Calm 16.09 Mostly Cloudy FEW029 SCT050 BKN250 27.8 20 63% 29 76.58 1019.4
19 10:52 S 9 16.09 Mostly Cloudy FEW023 BKN065 BKN250 26.7 20.6 69% 28 76.58 1019.5
19 09:52 S 13 16.09 Mostly Cloudy SCT019 SCT060 BKN080 BKN250 25 20.6 77% 26 76.58 1019.3
19 08:52 SE 17 16.09 Mostly Cloudy FEW020 SCT047 BKN250 25 20 74% 26 76.53 1018.7
19 07:52 SE 15 16.09 Mostly Cloudy SCT020 BKN037 BKN095 23.9 20 79% 24 76.48 1018.0
19 06:52 Calm 16.09 Overcast SCT022 BKN027 OVC095 23.3 20.6 25 22.2 85% 76.43 1017.3
19 05:52 E 6 16.09 Mostly Cloudy SCT031 BKN085 22.2 20.6 91% 76.35 1016.2
19 04:52 SE 7 16.09 Partly Cloudy FEW160 FEW200 SCT250 22.2 20.6 91% 76.28 1015.1
19 03:52 SE 13 16.09 Partly Cloudy FEW160 FEW200 SCT250 22.8 20.6 87% 76.17 1014.0
19 02:52 SE 20 16.09 Partly Cloudy FEW160 SCT200 SCT250 23.9 20 79% 24 76.12 1013.1
19 01:52 SE 24 G 43 16.09 Partly Cloudy FEW060 SCT200 SCT250 24.4 20 77% 25 76.07 1012.6
19 00:52 SE 26 16.09 A Few Clouds FEW060 FEW150 FEW250 25 19.4 29.4 25 71% 26 76.05 1012.1
18 23:52 SE 20 16.09 Partly Cloudy FEW060 FEW200 SCT250 25.6 20 71% 27 76.1 1012.9
18 22:52 SE 20 G 37 16.09 Mostly Cloudy BKN060 BKN250 26.7 20 67% 28 76.05 1012.4
18 21:52 SE 15 16.09 Mostly Cloudy BKN055 BKN250 27.2 19.4 62% 29 75.97 1011.2
18 20:52 S 24 16.09 Mostly Cloudy BKN050 BKN250 27.8 20 63% 29 75.84 1009.6
18 19:52 S 28 G 44 16.09 Mostly Cloudy SCT046 BKN060 BKN250 28.3 20.6 63% 30 75.82 1009.1
18 18:52 S 33 G 54 16.09 Partly Cloudy and Breezy SCT043 SCT250 29.4 20 30.6 28.3 57% 31 75.74 1008.0
18 17:52 S 28 G 50 16.09 Mostly Cloudy SCT050 BKN180 BKN250 30 21.1 59% 33 75.72 1007.8
18 16:52 S 31 G 48 16.09 Mostly Cloudy BKN044 BKN180 BKN250 29.4 20.6 59% 32 75.79 1008.7
18 15:52 S 37 G 57 16.09 Mostly Cloudy and Breezy SCT041 BKN180 BKN250 30.6 21.1 57% 33 75.79 1008.6
18 14:52 S 39 G 67 16.09 Mostly Cloudy and Breezy SCT036 SCT045 BKN150 BKN250 30 21.1 59% 33 75.77 1008.4
18 13:52 S 35 G 61 16.09 Mostly Cloudy and Breezy SCT036 BKN046 28.9 20.6 61% 31 75.82 1009.1
Date Time (cdt) Wind (kph) Vis. (km) Weather Sky Cond. Air Dwpt Max. Min. Relative Humidity Wind Chill (°C) Heat Index (°C) altimeter (cm) sea level (mb) 1 hr 3 hr 6 hr
6 hour
Temperature (ºC) Pressure Precipitation (cm)